Regional Weather Roundup
Issued by NWS

Home | Current Version | Previous Version | Graphics & Text | Print | Product List | Glossary Off
Versions: 1 2 3 4 5 6 7 8 9 10 11 12 13 14 15 16 17 18 19 20 21 22 23 24 25 26 27 28 29 30 31 32 33 34 35 36 37 38 39 40 41 42 43 44 45 46 47 48 49 50

000
ASUS43 KMKX 022313
RWRWI

WISCONSIN REGIONAL WEATHER ROUNDUP
NATIONAL WEATHER SERVICE MILWAUKEE/SULLIVAN WI
600 PM CDT TUE JUN 02 2015

NOTE: "FAIR" INDICATES FEW OR NO CLOUDS BELOW 12,000 FEET WITH NO
SIGNIFICANT WEATHER AND/OR OBSTRUCTIONS TO VISIBILITY.

WIZ001-002-006>008-014>016-023>028-030000-
NORTHWEST WISCONSIN

CITY           SKY/WX    TMP DP  RH WIND       PRES   REMARKS
SUPERIOR ARPT  PTSUNNY   51  41  67 NE10      29.94S
ASHLAND        MOSUNNY   75  49  39 S10       29.94F
HAYWARD        PTSUNNY   74  48  39 S14       29.96F
SIREN          PTSUNNY   74  52  45 S16       29.94F
CUMBERLAND     PTSUNNY   70  50  49 S18       29.97S
RICE LAKE      PTSUNNY   73  49  42 SE14      29.98F
CHETEK         PTSUNNY   71  51  49 SE14G21   29.97F
LADYSMITH      MOSUNNY   73  47  39 S7        30.02S
EAU CLAIRE     PTSUNNY   73  51  46 S17       29.98F
MENOMONIE      MOSUNNY   73  52  47 SE10      29.98F
NEW RICHMOND   PTSUNNY   72  53  51 S12       29.96F
OSCEOLA        PTSUNNY   73  52  46 S17G25    29.97F
$$

WIZ003>005-009-010-017-018-030000-
NORTH CENTRAL WISCONSIN

CITY           SKY/WX    TMP DP  RH WIND       PRES   REMARKS
MANITOWISH WTR SUNNY     71  38  29 S12G21    30.01S
ARBOR VITAE    SUNNY     72  33  24 S10G21    30.02F
WOODRUFF       SUNNY     72  33  24 S10G21    30.02F
RHINELANDER    SUNNY     71  36  27 S9        30.04F
EAGLE RIVER    SUNNY     71  32  23 SW6       30.02F
LAND O LAKES   SUNNY     74  30  19 S8        30.03F
PHILLIPS       PTSUNNY   69  43  39 S14       30.01F
TOMAHAWK       SUNNY     70  40  33 S6        30.04F
MEDFORD        SUNNY     68  41  37 SE10      30.03F
MERRILL        SUNNY     72  39  30 SW13G18   30.05F
$$

WIZ029-030-035-036-043>047-030000-
CENTRAL WISCONSIN

CITY           SKY/WX    TMP DP  RH WIND       PRES   REMARKS
WAUSAU         SUNNY     72  40  31 S10       30.02F
MOSINEE        SUNNY     70  39  32 S10       30.04F
MARSHFIELD     MOSUNNY   72  41  32 S13       30.03F
STEVENS POINT  SUNNY     71  40  32 SE6       30.05F
WAUPACA        SUNNY     74  40  28 SE7       30.06F
WAUTOMA        NOT AVBL
WISC RAPIDS    SUNNY     74  39  28 S10       30.04F
CAMP DOUGLAS   NOT AVBL
$$

WIZ011>013-019>022-031-037>040-048>050-030000-
NORTHEAST WISCONSIN

CITY           SKY/WX    TMP DP  RH WIND       PRES   REMARKS
ANTIGO         SUNNY     68  44  42 S10       30.06F
SHAWANO        SUNNY     73  40  30 SW6       30.07F
OCONTO         MOSUNNY   68  43  40 S10       30.08F
STURGEON BAY   MOSUNNY   64  37  36 S10       30.13S
GREEN BAY      SUNNY     69  38  32 S14       30.08F
MANITOWOC      NOT AVBL
APPLETON       SUNNY     70  34  26 S10       30.09F
CLINTONVILLE   SUNNY     72  41  33 S9        30.06F
OSHKOSH        SUNNY     70  38  31 SE9       30.07F
$$

WIZ032>034-041-042-053>061-030000-
SOUTHWEST WISCONSIN

CITY           SKY/WX    TMP DP  RH WIND       PRES   REMARKS
LA CROSSE      CLOUDY    75  50  41 S12       30.00F
SPARTA         PTSUNNY   72  46  40 S8        30.04F
VIROQUA        CLOUDY    70  47  44 S9        30.05F
BOSCOBEL       PTSUNNY   73  49  42 VRB6      30.04F
PRAIRIE DU CHI CLOUDY    73  47  40 SE6       30.04F
PLATTEVILLE    PTSUNNY   71  46  41 S5        30.06F
$$

WIZ056-057-062-063-064-067-068-030000-
SOUTH CENTRAL WISCONSIN

CITY           SKY/WX    TMP DP  RH WIND       PRES   REMARKS
REEDSBURG      MOSUNNY   70  45  39 S6        30.06S
BARABOO/DELLS  MOSUNNY   70  45  39 S7        30.06F
LONE ROCK      NOT AVBL
MINERAL POINT  MOSUNNY   72  39  30 SE6       30.06F
MADISON        PTSUNNY   72  43  35 S8        30.06F
MIDDLETON      SUNNY     74  38  27 S6        30.07S
WATERTOWN      SUNNY     72  46  40 S6        30.07S
MONROE         MOSUNNY   72  45  37 SE7       30.06F
JANESVILLE     NOT AVBL
$$

WIZ051-052-058>065-066-070>072-030000-
SOUTHEAST WISCONSIN

CITY           SKY/WX    TMP DP  RH WIND       PRES   REMARKS
MILWAUKEE      PTSUNNY   63  38  39 SE8       30.10F
WAUKESHA       SUNNY     66  37  34 SE7       30.10F
MILWAUKEE/TIMM SUNNY     64  39  39 E7        30.11F
RACINE         SUNNY     62  44  51 SE7       30.12F
BURLINGTON     SUNNY     67  46  46 E9        30.09F
KENOSHA        SUNNY     65  42  43 SE8       30.10F
FOND DU LAC    SUNNY     69  40  34 SE12      30.08F
SHEBOYGAN      SUNNY     62  42  47 S9        30.11F
WEST BEND      SUNNY     64  41  42 SE6       30.10F
JUNEAU         SUNNY     71  47  43 E9        30.08F
$$

LSZ147-162-030000-
LAKE SUPERIOR

STATION/POSITION TIME  TEMP    WIND        PRES    WAVE
                       AIR SEA DIR/SP/G            HT/PER
                 (UTC) (F)     (DEG/KT/KT) (MB)    (FT/S)
W MID LAKE BUOY  2150   42 37   90/ 12/ 14   N/A     0
DEVILS ISLAND    2200   46      50/ 10/ 11   N/A
PORT WING        2140   49      20/ 14/ 17   N/A
SAXON HARBOR     2100   77     180/  7/ 16   N/A
$$

LMZ867-665-643>646-030000-
LAKE MICHIGAN

STATION/POSITION TIME  TEMP    WIND        PRES    WAVE
                       AIR SEA DIR/SP/G            HT/PER
                 (UTC) (F)     (DEG/KT/KT) (MB)    (FT/S)
CHAMBERS ISLAND  2100   67     150/  8/ 13   N/A
N MID LAKE BUOY  2150   44 38  180/  4/  4   N/A     0
NORTHPORT PIER   2200   60     140/  7/ 10   N/A
SISTER BAY       2218   66     180/ 12/ 16   N/A
ALGOMA LAKESHORE 2209          220/  9/ 10   N/A
KEWAUNEE LAKESHO 2200   52     180/  8/ 10   N/A
SHEBOYGAN LAKESH 2200   50     180/  6/  6   N/A
PORT WASHINGTON  2140   54      CALM  /  2   N/A
ATWATER BUOY     2200   48 49   50/  2/  4   N/A
MILWAUKEE LAKESH 2200   48      50/  4/  5   N/A
S MID LAKE BUOY  2150   46 39  340/  6/  8   N/A
KENOSHA   LAKESH 2200   53      50/  2/  3   N/A
$$

TC  - TEMPERATURE IN CELSIUS
VSB - VISIBILITY IN STATUTE MILES
WCI - WIND CHILL INDEX
HX  - HEAT INDEX



USA.gov is the U.S. government's official web portal to all federal, state and local government web resources and services.